Regional Weather Roundup
Issued by NWS

Home | Current Version | Previous Version | Graphics & Text | Print | Product List | Glossary On
Versions: 1 2 3 4 5 6 7 8 9 10 11 12 13 14 15 16 17 18 19 20 21 22 23 24 25 26 27 28 29 30 31 32 33 34 35 36 37 38 39 40 41 42 43 44 45 46 47 48 49 50
000
ASUS43 KFSD 230602
RWRSD

WEATHER ROUNDUP FOR SOUTH DAKOTA
NATIONAL WEATHER SERVICE SIOUX FALLS SD
100 AM CDT MON APR 23 2018

NOTE: "FAIR" INDICATES FEW OR NO CLOUDS BELOW 12,000 FEET WITH NO
SIGNIFICANT WEATHER AND/OR OBSTRUCTIONS TO VISIBILITY.


SDZ001>005-009-010-012>017-230700-
NORTHWEST AND NORTH CENTRAL SOUTH DAKOTA

CITY           SKY/WX    TMP DP  RH WIND       PRES   REMARKS
BUFFALO          N/A     48  31  51 NE9       30.03F
FAITH            N/A     45  40  82 SE13      30.10S
MOBRIDGE       CLEAR     46  37  71 SE8       30.10F
$$

SDZ012>016-024>037-041>051-057-063-072>074-230700-
SOUTHWEST AND SOUTH CENTRAL SOUTH DAKOTA

CITY           SKY/WX    TMP DP  RH WIND       PRES   REMARKS
RAPID CTY ARPT CLEAR     40  35  83 MISG      30.09F
PIERRE         CLEAR     45  37  73 E3        30.13S
CUSTER         CLEAR     37  30  75 NE3       30.13F
PHILIP         CLEAR     49  38  65 VRB7      30.12R
PINE RIDGE     CLEAR     48  38  68 S17       30.12R
SPEARFISH      FAIR      48  36  61 E10       30.08F
WINNER         FAIR      45  35  68 SW5       30.16S
$$

SDZ004>011-016>023-039-040-230700-
NORTHEAST SOUTH DAKOTA

CITY           SKY/WX    TMP DP  RH WIND       PRES   REMARKS
ABERDEEN       CLEAR     41  37  86 S10       30.18S
WATERTOWN      CLEAR     41  36  82 SE9       30.19F
BROOKINGS      CLEAR     39  35  86 SE7       30.21S
SISSETON         N/A     42  36  79 S7        30.19S
$$

SDZ017-020-022-023-036>040-048>070-230700-
SOUTHEAST SOUTH DAKOTA

CITY           SKY/WX    TMP DP  RH WIND       PRES   REMARKS
SIOUX FALLS    CLEAR     42  36  79 E7        30.21S
HURON          NOT AVBL
CHAMBERLAIN    CLEAR     44  40  88 CALM      30.17S
MITCHELL       CLEAR     45  39  79 SE6       30.19S
YANKTON        CLEAR     46  41  82 E5        30.20S
$$

ABBREVIATIONS USED IN REMARKS
   TC - TEMPERATURE IN CELSIUS
  WCI - WIND CHILL INDEX
   HX - HEAT INDEX
  VSB - VISIBILITY




USA.gov is the U.S. government's official web portal to all federal, state and local government web resources and services.